Zurück zum Katalog

STARLINK-34183

AktivKommunikationVLEO
NORAD 64254·PAYLOAD·🇺🇸 United States

Gestartet Jun 3, 2025 von Cape Canaveral Space Force Station

Loading…

Nächste Überflüge (nächste 24 Stunden)

TLE

AktuellSource: CelesTrak SupGP

Epoche: Sep 14, 2026, 21:17 UTC

1 64254C 25119X   26257.88729167 -.00031397  00000+0 -11372-2 0  2576
2 64254  43.0027 318.8980 0001687 268.3083 347.9887 15.27592359    13

Verfolge STARLINK-34183 in Echtzeit mit AllMySat

Download on the App Store